Вернуться в каталог

ONEWEB-0573

АктивенСвязьPO
NORAD 55152·PAYLOAD·🇬🇧 United Kingdom

Запущен Jan 10, 2023 с Cape Canaveral Space Force Station

Loading…

Ближайшие Пролёты (ближайшие 24 часа)

TLE

СвежийSource: CelesTrak SupGP

Эпоха: Sep 14, 2026, 16:08 UTC

1 55152C 23004N   26257.67241157  .00000350  00000+0  88865-3 0  2574
2 55152  87.9156 317.6870 0001098  94.8235  15.1573 13.18685771    17

Отслеживайте ONEWEB-0573 в реальном времени с AllMySat

Download on the App Store